Location: Lane
(33.5226°N, 79.8788°W)
Time: 10:33:28
(UTC+00:00)

Altair - Pass Details

Date: 06 October 2022
Orbit: 1501 x 1682 km, 47.2° (Epoch: 30 November)

Event Time Altitude Azimuth Distance (km) Brightness Sun altitude
Rises 11:13:12 0° 274° (W) 4,776 - -1.7°
Exits shadow 11:13:49 - 275° (W) 4,595 9.3 -1.6°
Reaches altitude 10° 11:16:34 10° 282° (WNW) 3,818 8.9 -1.0°
Maximum altitude 11:25:35 39° 349° (N) 2,284 8.3 0.8°
Drops below altitude 10° 11:34:52 10° 56° (NE) 3,932 10.5 2.8°
Sets 11:38:25 0° 64° (ENE) 4,930 11.2 3.5°
